Terug naar catalogus

DELTA 1 DEB

ActiefSSO
NORAD 26701·DEBRIS·🇺🇸 United States

Gelanceerd Jun 12, 1975 vanaf Vandenberg Space Force Base

Loading…

Volgende Passages (komende 24 uur)

TLE

VersSource: Space-Track

Epoch: Sep 14, 2026, 02:49 UTC

1 26701U 75052KB  26257.11780983  .00000394  00000-0  50849-3 0  9999
2 26701  99.7469 126.2706 0259472  44.7109 105.1389 13.55467029274181

Volg DELTA 1 DEB in realtime met AllMySat

Download on the App Store